NSZ5715 EKCH-GCLP

Flight info

Callsign NSZ5715
Flight time N/A
Altitude 36000
Route LANGO DCT RAXLU DCT EKERN DCT EMMUN DCT SISGA/N0444F350 DCT KOVIN DCT DUCRA UM728 RESMI UN857 DISAK DCT ARKIP DCT ARNAV DCT LMG/N0445F370 DCT UVELI DCT OSMOB DCT VAVIX DCT NETUK DCT PPN DCT NOLSA DCT ALEPO DCT VASUM DCT BANEV DCT BAN DCT GOTOR DCT KAMPO DCT MONTO DCT MOLIN DCT HIJ DCT SVL DCT CLANA DCT KORNO UN857 TERTO
Aircraft B38M/M-SDE1FGHILORVWXY/HB1

Departure

Time 2026-04-26 10:39
Airport Copenhagen Kastrup Airport (EKCH)

Arrival

Time N/A
Airport Gran Canaria Airport (GCLP)
Time Latitude Longitude Altitude Speed Heading
2026-04-26 09:53 55.62878 12.64066 30 ft 0 kts 11°
2026-04-26 09:56 55.62877 12.64066 26 ft 0 kts 11°
2026-04-26 09:58 55.62877 12.64065 26 ft 0 kts 11°
2026-04-26 10:12 55.62876 12.64065 26 ft 0 kts 11°
2026-04-26 10:24 55.62858 12.64058 28 ft 4 kts 14°
2026-04-26 10:24 55.62834 12.64039 29 ft 4 kts 41°
2026-04-26 10:24 55.62818 12.64003 31 ft 3 kts 66°
2026-04-26 10:25 55.62817 12.63996 31 ft 0 kts 68°
2026-04-26 10:29 55.62817 12.63997 31 ft 0 kts 73°
2026-04-26 10:29 55.62817 12.63998 31 ft 0 kts 79°
2026-04-26 10:29 55.62816 12.64001 31 ft 0 kts 105°
2026-04-26 10:30 55.62809 12.64003 30 ft 2 kts 178°
2026-04-26 10:30 55.62768 12.63949 27 ft 13 kts 217°
2026-04-26 10:30 55.62691 12.63861 27 ft 12 kts 202°
2026-04-26 10:30 55.62623 12.63938 29 ft 13 kts 123°
2026-04-26 10:31 55.62569 12.64087 27 ft 16 kts 123°
2026-04-26 10:31 55.62498 12.64277 26 ft 21 kts 124°
2026-04-26 10:31 55.62404 12.64496 27 ft 22 kts 125°
2026-04-26 10:31 55.62319 12.64722 26 ft 19 kts 123°
2026-04-26 10:32 55.62225 12.64785 26 ft 16 kts 200°
2026-04-26 10:32 55.62130 12.64679 27 ft 17 kts 214°
2026-04-26 10:32 55.62028 12.64559 27 ft 18 kts 213°
2026-04-26 10:32 55.61907 12.64506 26 ft 19 kts 172°
2026-04-26 10:33 55.61774 12.64552 30 ft 20 kts 169°
2026-04-26 10:33 55.61641 12.64519 28 ft 20 kts 213°
2026-04-26 10:33 55.61524 12.64391 27 ft 20 kts 213°
2026-04-26 10:33 55.61403 12.64252 26 ft 21 kts 213°
2026-04-26 10:34 55.61276 12.64107 27 ft 22 kts 213°
2026-04-26 10:34 55.61144 12.63955 28 ft 23 kts 213°
2026-04-26 10:34 55.61009 12.63800 27 ft 24 kts 213°
2026-04-26 10:34 55.60868 12.63637 28 ft 25 kts 212°
2026-04-26 10:35 55.60721 12.63472 26 ft 25 kts 212°
2026-04-26 10:35 55.60582 12.63277 29 ft 26 kts 219°
2026-04-26 10:35 55.60467 12.63116 26 ft 18 kts 196°
2026-04-26 10:35 55.60409 12.63151 28 ft 0 kts 134°
2026-04-26 10:37 55.60410 12.63151 28 ft 0 kts 134°
2026-04-26 10:37 55.60408 12.63154 28 ft 2 kts 134°
2026-04-26 10:38 55.60380 12.63210 26 ft 11 kts 129°
2026-04-26 10:38 55.60343 12.63336 29 ft 11 kts 74°
2026-04-26 10:38 55.60385 12.63415 28 ft 9 kts 41°
2026-04-26 10:38 55.60527 12.63632 26 ft 58 kts 41°
2026-04-26 10:39 55.60998 12.64365 28 ft 121 kts 41°
2026-04-26 10:39 55.61756 12.65541 136 ft 160 kts 41°
2026-04-26 10:39 55.62573 12.66869 833 ft 163 kts 39°
2026-04-26 10:39 55.63455 12.68265 1519 ft 179 kts 37°
2026-04-26 10:40 55.64424 12.69728 2246 ft 190 kts 37°
2026-04-26 10:40 55.65490 12.71329 2726 ft 211 kts 38°
2026-04-26 10:40 55.66349 12.73650 3057 ft 247 kts 71°
2026-04-26 10:40 55.66364 12.76634 4159 ft 246 kts 102°
2026-04-26 10:41 55.65549 12.79434 4822 ft 269 kts 131°
2026-04-26 10:41 55.63997 12.81393 5650 ft 276 kts 157°
2026-04-26 10:41 55.62141 12.82120 6502 ft 282 kts 184°
2026-04-26 10:41 55.60294 12.81131 7321 ft 279 kts 216°
2026-04-26 10:42 55.58920 12.78751 8078 ft 276 kts 244°
2026-04-26 10:42 55.58075 12.75724 8930 ft 278 kts 247°
2026-04-26 10:42 55.57116 12.72709 9771 ft 282 kts 246°
2026-04-26 10:42 55.56138 12.69665 10567 ft 288 kts 246°
2026-04-26 10:43 55.55124 12.66546 10959 ft 306 kts 246°
2026-04-26 10:43 55.54010 12.63184 11277 ft 325 kts 246°
2026-04-26 10:43 55.52840 12.59667 11755 ft 337 kts 246°
2026-04-26 10:43 55.51653 12.56064 12507 ft 340 kts 246°
2026-04-26 10:44 55.50479 12.52469 13209 ft 344 kts 247°
2026-04-26 10:44 55.49277 12.48777 13920 ft 348 kts 248°
2026-04-26 10:44 55.48063 12.45051 14562 ft 352 kts 248°
2026-04-26 10:44 55.46837 12.41289 15207 ft 354 kts 248°
2026-04-26 10:45 55.45616 12.37542 15839 ft 357 kts 248°
2026-04-26 10:45 55.44372 12.33732 16435 ft 360 kts 248°
2026-04-26 10:45 55.43116 12.29892 17052 ft 363 kts 248°
2026-04-26 10:45 55.41851 12.26032 17652 ft 365 kts 248°
2026-04-26 10:46 55.40579 12.22148 18283 ft 366 kts 248°
2026-04-26 10:46 55.39294 12.18240 18821 ft 370 kts 248°
2026-04-26 10:46 55.38015 12.14352 19328 ft 372 kts 248°
2026-04-26 10:46 55.36711 12.10394 19830 ft 374 kts 248°
2026-04-26 10:47 55.35404 12.06430 20322 ft 376 kts 248°
2026-04-26 10:47 55.34082 12.02429 20805 ft 379 kts 248°
2026-04-26 10:47 55.32750 11.98403 21298 ft 381 kts 248°
2026-04-26 10:47 55.31409 11.94358 21786 ft 384 kts 248°
2026-04-26 10:48 55.30079 11.90350 22259 ft 386 kts 248°
2026-04-26 10:48 55.28723 11.86273 22721 ft 388 kts 248°
2026-04-26 10:48 55.27357 11.82171 23183 ft 391 kts 248°
2026-04-26 10:48 55.25974 11.78026 23636 ft 393 kts 248°
2026-04-26 10:49 55.24586 11.73871 24057 ft 396 kts 248°
2026-04-26 10:49 55.23188 11.69697 24433 ft 397 kts 248°
2026-04-26 10:49 55.21804 11.65570 24788 ft 399 kts 247°
2026-04-26 10:49 55.20394 11.61369 25136 ft 400 kts 246°
2026-04-26 10:50 55.18975 11.57152 25539 ft 401 kts 246°
2026-04-26 10:50 55.18036 11.54359 25790 ft 402 kts 246°
2026-04-26 10:50 55.16126 11.48700 26282 ft 404 kts 246°
2026-04-26 10:50 55.14709 11.44507 26630 ft 406 kts 246°
2026-04-26 10:51 55.13271 11.40258 26980 ft 407 kts 246°
2026-04-26 10:51 55.10366 11.31698 27663 ft 410 kts 246°
2026-04-26 10:51 55.08907 11.27408 27997 ft 412 kts 245°
2026-04-26 10:52 55.07441 11.23107 28323 ft 413 kts 245°
2026-04-26 10:52 55.05964 11.18780 28654 ft 415 kts 245°
2026-04-26 10:52 55.04481 11.14444 28967 ft 416 kts 245°
2026-04-26 10:52 55.02991 11.10094 29274 ft 418 kts 245°
2026-04-26 10:53 55.01516 11.05794 29546 ft 419 kts 245°
2026-04-26 10:53 55.00008 11.01408 29871 ft 420 kts 245°
2026-04-26 10:53 54.98499 10.97025 30178 ft 422 kts 245°
2026-04-26 10:54 54.95484 10.88293 30677 ft 424 kts 244°
2026-04-26 10:54 54.93863 10.83963 30911 ft 428 kts 240°
2026-04-26 10:54 54.92174 10.79693 31178 ft 428 kts 241°
2026-04-26 10:54 54.90488 10.75393 31429 ft 429 kts 241°
2026-04-26 10:55 54.88813 10.71113 31794 ft 427 kts 241°
2026-04-26 10:55 54.87145 10.66852 32127 ft 425 kts 241°
2026-04-26 10:55 54.85481 10.62606 32475 ft 424 kts 241°
2026-04-26 10:55 54.83849 10.58449 32805 ft 422 kts 241°
2026-04-26 10:56 54.82197 10.54247 33135 ft 421 kts 241°
2026-04-26 10:56 54.80547 10.50057 33435 ft 419 kts 240°
2026-04-26 10:56 54.78898 10.45878 33765 ft 417 kts 240°
2026-04-26 10:56 54.77259 10.41730 34107 ft 416 kts 240°
2026-04-26 10:57 54.75649 10.37664 34385 ft 414 kts 240°
2026-04-26 10:57 54.74020 10.33554 34632 ft 413 kts 240°
2026-04-26 10:57 54.72387 10.29441 34816 ft 414 kts 240°
2026-04-26 10:57 54.70589 10.25497 34983 ft 418 kts 234°
2026-04-26 10:58 54.68672 10.21708 35194 ft 418 kts 234°
2026-04-26 10:58 54.66768 10.17953 35321 ft 419 kts 234°
2026-04-26 10:58 54.64840 10.14169 35515 ft 419 kts 234°
2026-04-26 10:58 54.62908 10.10384 35673 ft 420 kts 233°
2026-04-26 10:59 54.60971 10.06599 35838 ft 420 kts 233°
2026-04-26 10:59 54.59033 10.02816 35974 ft 420 kts 233°
2026-04-26 10:59 54.57095 9.99041 36142 ft 420 kts 233°
2026-04-26 10:59 54.55170 9.95295 36300 ft 420 kts 233°
2026-04-26 11:00 54.51276 9.87736 36336 ft 421 kts 232°
2026-04-26 11:00 54.47007 9.80786 36398 ft 423 kts 228°
2026-04-26 11:01 54.42730 9.73850 36312 ft 422 kts 228°
2026-04-26 11:01 54.38449 9.66885 36317 ft 424 kts 228°
2026-04-26 11:02 54.34189 9.59973 36306 ft 423 kts 227°
2026-04-26 11:02 54.29907 9.53041 36318 ft 423 kts 227°
2026-04-26 11:03 54.25642 9.46159 36317 ft 423 kts 227°
2026-04-26 11:03 54.21349 9.39253 36321 ft 423 kts 227°
2026-04-26 11:04 54.17086 9.32414 36326 ft 423 kts 227°
2026-04-26 11:04 54.12799 9.25560 36306 ft 423 kts 227°
2026-04-26 11:05 54.08498 9.18701 36331 ft 423 kts 227°
2026-04-26 11:05 54.04195 9.11862 36334 ft 423 kts 227°
2026-04-26 11:06 54.00616 9.06187 36339 ft 423 kts 227°
2026-04-26 11:06 53.95598 8.98256 36344 ft 423 kts 227°
2026-04-26 11:07 53.91279 8.91451 36323 ft 423 kts 226°
2026-04-26 11:07 53.86947 8.84645 36348 ft 424 kts 226°
2026-04-26 11:08 53.82636 8.77893 36345 ft 424 kts 226°
2026-04-26 11:08 53.78298 8.71119 36346 ft 424 kts 226°
2026-04-26 11:09 53.73956 8.64358 36347 ft 424 kts 226°
2026-04-26 11:09 53.69627 8.57636 36345 ft 424 kts 226°
2026-04-26 11:10 53.65270 8.50893 36346 ft 424 kts 225°
2026-04-26 11:10 53.60904 8.44153 36344 ft 424 kts 225°
2026-04-26 11:11 53.56573 8.37487 36341 ft 424 kts 225°
2026-04-26 11:11 53.52204 8.30783 36341 ft 424 kts 225°
2026-04-26 11:12 53.47823 8.24081 36341 ft 426 kts 225°
2026-04-26 11:12 53.43465 8.17432 36332 ft 426 kts 225°
2026-04-26 11:13 53.39060 8.10732 36337 ft 426 kts 225°
2026-04-26 11:13 53.34671 8.04075 36338 ft 426 kts 225°
2026-04-26 11:14 53.30288 7.97446 36338 ft 426 kts 225°
2026-04-26 11:14 53.26629 7.91927 36335 ft 426 kts 224°
2026-04-26 11:15 53.21495 7.84206 36336 ft 426 kts 224°
2026-04-26 11:15 53.17082 7.77590 36335 ft 426 kts 224°
2026-04-26 11:16 53.13417 7.72109 36336 ft 426 kts 224°
2026-04-26 11:16 53.08999 7.65520 36336 ft 426 kts 224°
2026-04-26 11:17 53.04578 7.58946 36336 ft 426 kts 224°
2026-04-26 11:17 53.00164 7.52403 36319 ft 426 kts 224°
2026-04-26 11:18 52.95724 7.45836 36339 ft 427 kts 224°
2026-04-26 11:18 52.91279 7.39282 36332 ft 427 kts 224°
2026-04-26 11:19 52.86832 7.32744 36332 ft 427 kts 224°
2026-04-26 11:19 52.82406 7.26254 36334 ft 427 kts 224°
2026-04-26 11:20 52.77949 7.19734 36320 ft 427 kts 224°
2026-04-26 11:20 52.73507 7.13253 36336 ft 428 kts 224°
2026-04-26 11:21 52.69028 7.06737 36344 ft 428 kts 224°
2026-04-26 11:21 52.64648 7.00103 36342 ft 428 kts 226°
2026-04-26 11:22 52.60325 6.93414 36338 ft 429 kts 225°
2026-04-26 11:22 52.55964 6.86697 36323 ft 429 kts 225°
2026-04-26 11:23 52.51622 6.80028 36336 ft 430 kts 225°
2026-04-26 11:23 52.47234 6.73310 36332 ft 429 kts 225°
2026-04-26 11:24 52.42885 6.66669 36332 ft 430 kts 225°
2026-04-26 11:24 52.38494 6.59984 36333 ft 430 kts 225°
2026-04-26 11:25 52.34133 6.53362 36321 ft 430 kts 225°
2026-04-26 11:25 52.29735 6.46703 36341 ft 431 kts 225°
2026-04-26 11:26 52.25317 6.40033 36331 ft 431 kts 225°
2026-04-26 11:26 52.20904 6.33391 36332 ft 432 kts 225°
2026-04-26 11:27 52.16513 6.26799 36333 ft 432 kts 225°
2026-04-26 11:27 52.12083 6.20168 36326 ft 432 kts 225°
2026-04-26 11:28 52.07647 6.13546 36353 ft 433 kts 225°
2026-04-26 11:28 52.03197 6.06923 36349 ft 433 kts 225°
2026-04-26 11:29 51.98770 6.00351 36332 ft 433 kts 225°
2026-04-26 11:29 51.94314 5.93756 36330 ft 433 kts 225°
2026-04-26 11:30 51.90603 5.88278 36341 ft 433 kts 225°
2026-04-26 11:30 51.85409 5.80630 36340 ft 435 kts 225°
2026-04-26 11:31 51.80916 5.74036 36345 ft 435 kts 225°
2026-04-26 11:31 51.76415 5.67448 36344 ft 435 kts 225°
2026-04-26 11:32 51.71956 5.60940 36336 ft 435 kts 225°
2026-04-26 11:32 51.67453 5.54387 36315 ft 435 kts 225°
2026-04-26 11:33 51.62948 5.47847 36325 ft 437 kts 225°
2026-04-26 11:33 51.58430 5.41309 36320 ft 436 kts 225°
2026-04-26 11:34 51.53902 5.34773 36320 ft 437 kts 225°
2026-04-26 11:34 51.49402 5.28297 36311 ft 437 kts 225°
2026-04-26 11:35 51.44853 5.21767 36311 ft 438 kts 225°
2026-04-26 11:35 51.41059 5.16335 36318 ft 439 kts 225°
2026-04-26 11:36 51.35750 5.08756 36317 ft 439 kts 225°
2026-04-26 11:36 51.31175 5.02245 36314 ft 439 kts 225°
2026-04-26 11:37 51.26601 4.95753 36314 ft 440 kts 225°
2026-04-26 11:37 51.22047 4.89306 36300 ft 440 kts 225°
2026-04-26 11:38 51.17455 4.82824 36312 ft 441 kts 225°
2026-04-26 11:38 51.12874 4.76376 36311 ft 440 kts 225°
2026-04-26 11:39 51.08273 4.69915 36310 ft 441 kts 225°
2026-04-26 11:39 51.03659 4.63457 36318 ft 442 kts 225°
2026-04-26 11:40 50.99030 4.56994 36322 ft 442 kts 225°
2026-04-26 11:40 50.94432 4.50594 36319 ft 442 kts 225°
2026-04-26 11:42 50.75926 4.24999 36315 ft 443 kts 225°
2026-04-26 11:43 50.71268 4.18597 36307 ft 443 kts 225°
2026-04-26 11:43 50.66610 4.12213 36302 ft 443 kts 225°
2026-04-26 11:44 50.61937 4.05927 36287 ft 446 kts 218°
2026-04-26 11:44 50.56515 4.01153 36263 ft 449 kts 213°
2026-04-26 11:45 50.51070 3.96437 36318 ft 449 kts 212°
2026-04-26 11:45 50.45562 3.91714 36292 ft 450 kts 212°
2026-04-26 11:46 50.40059 3.87012 36301 ft 450 kts 212°
2026-04-26 11:46 50.34555 3.82322 36277 ft 450 kts 212°
2026-04-26 11:47 50.29077 3.77666 36286 ft 451 kts 212°
2026-04-26 11:47 50.23560 3.72990 36282 ft 450 kts 212°
2026-04-26 11:48 50.18043 3.68325 36278 ft 450 kts 212°
2026-04-26 11:48 50.12553 3.63696 36262 ft 450 kts 212°
2026-04-26 11:49 50.07034 3.59055 36275 ft 451 kts 212°
2026-04-26 11:49 50.01503 3.54416 36273 ft 451 kts 212°
2026-04-26 11:50 49.96002 3.49815 36269 ft 451 kts 212°
2026-04-26 11:50 49.90471 3.45199 36260 ft 451 kts 212°
2026-04-26 11:51 49.84937 3.40595 36268 ft 451 kts 212°
2026-04-26 11:51 49.79388 3.35989 36266 ft 451 kts 212°
2026-04-26 11:52 49.74779 3.32172 36266 ft 451 kts 212°
2026-04-26 11:52 49.68336 3.26852 36250 ft 451 kts 212°
2026-04-26 11:53 49.62789 3.22284 36252 ft 452 kts 212°
2026-04-26 11:54 49.54492 3.15471 36254 ft 452 kts 212°
2026-04-26 11:54 49.48942 3.10896 36251 ft 450 kts 215°
2026-04-26 11:55 49.43822 3.05561 36286 ft 448 kts 218°
2026-04-26 11:55 49.38610 3.00263 36257 ft 448 kts 217°
2026-04-26 11:56 49.33395 2.95007 36246 ft 448 kts 217°
2026-04-26 11:56 49.28202 2.89790 36248 ft 448 kts 217°
2026-04-26 11:57 49.22979 2.84555 36246 ft 449 kts 217°
2026-04-26 11:57 49.17741 2.79318 36256 ft 449 kts 217°
2026-04-26 11:58 49.12509 2.74102 36259 ft 449 kts 217°
2026-04-26 11:58 49.07273 2.68894 36263 ft 449 kts 217°
2026-04-26 11:59 49.02030 2.63693 36245 ft 449 kts 217°
2026-04-26 11:59 48.96829 2.58541 36261 ft 448 kts 217°
2026-04-26 12:00 48.91613 2.53362 36268 ft 447 kts 217°
2026-04-26 12:00 48.86387 2.48188 36264 ft 447 kts 217°
2026-04-26 12:01 48.81191 2.43056 36270 ft 447 kts 217°
2026-04-26 12:01 48.75957 2.37899 36262 ft 447 kts 217°
2026-04-26 12:02 48.70760 2.32791 36267 ft 447 kts 217°
2026-04-26 12:02 48.65522 2.27657 36267 ft 447 kts 217°
2026-04-26 12:03 48.60286 2.22536 36254 ft 448 kts 217°
2026-04-26 12:03 48.54657 2.18635 36236 ft 453 kts 194°
2026-04-26 12:04 48.48468 2.16527 36144 ft 456 kts 196°
2026-04-26 12:04 48.43302 2.14818 36250 ft 458 kts 195°
2026-04-26 12:05 48.36074 2.12485 36234 ft 456 kts 195°
2026-04-26 12:05 48.30900 2.10825 36231 ft 457 kts 194°
2026-04-26 12:05 48.27732 2.10358 36158 ft 461 kts 179°
2026-04-26 12:06 48.24557 2.10945 36324 ft 458 kts 175°
2026-04-26 12:06 48.21370 2.11543 36168 ft 463 kts 175°
2026-04-26 12:06 48.18172 2.12173 36165 ft 462 kts 174°
2026-04-26 12:07 48.11775 2.12818 36128 ft 457 kts 192°
2026-04-26 12:07 48.08688 2.12151 36304 ft 455 kts 189°
2026-04-26 12:07 48.05524 2.11611 36110 ft 457 kts 189°
2026-04-26 12:07 48.02358 2.11041 36220 ft 456 kts 190°
2026-04-26 12:08 47.99191 2.10448 36259 ft 459 kts 190°
2026-04-26 12:08 47.92829 2.09237 36236 ft 460 kts 190°
2026-04-26 12:09 47.86513 2.08033 36238 ft 460 kts 190°
2026-04-26 12:09 47.80156 2.06824 36222 ft 460 kts 190°
2026-04-26 12:10 47.73801 2.05619 36215 ft 461 kts 190°
2026-04-26 12:10 47.67430 2.04413 36206 ft 461 kts 190°
2026-04-26 12:11 47.61261 2.02364 36170 ft 450 kts 206°
2026-04-26 12:11 47.55384 1.98988 36093 ft 454 kts 204°
2026-04-26 12:11 47.52433 1.97300 36197 ft 454 kts 204°
2026-04-26 12:12 47.49511 1.95616 36220 ft 457 kts 204°
2026-04-26 12:12 47.43577 1.92190 36195 ft 456 kts 204°
2026-04-26 12:13 47.37644 1.88769 36196 ft 457 kts 204°
2026-04-26 12:13 47.31734 1.85370 36211 ft 458 kts 204°
2026-04-26 12:14 47.25790 1.81961 36209 ft 458 kts 204°
2026-04-26 12:14 47.19878 1.78590 36206 ft 458 kts 204°
2026-04-26 12:15 47.13914 1.75227 36197 ft 458 kts 204°
2026-04-26 12:15 47.07980 1.71885 36206 ft 459 kts 204°
2026-04-26 12:16 47.02002 1.68527 36208 ft 459 kts 204°
2026-04-26 12:16 46.96033 1.65183 36213 ft 459 kts 204°
2026-04-26 12:17 46.90099 1.61865 36210 ft 459 kts 204°
2026-04-26 12:17 46.84132 1.58538 36207 ft 458 kts 204°
2026-04-26 12:18 46.78162 1.55216 36206 ft 458 kts 203°
2026-04-26 12:18 46.72193 1.51903 36208 ft 458 kts 203°
2026-04-26 12:19 46.66260 1.48618 36201 ft 458 kts 203°
2026-04-26 12:19 46.60287 1.45318 36200 ft 458 kts 203°
2026-04-26 12:20 46.54326 1.42033 36192 ft 458 kts 203°
2026-04-26 12:20 46.48367 1.38756 36196 ft 460 kts 203°
2026-04-26 12:21 46.42370 1.35467 36193 ft 460 kts 203°
2026-04-26 12:21 46.36377 1.32187 36192 ft 460 kts 203°
2026-04-26 12:22 46.30417 1.28933 36193 ft 461 kts 203°
2026-04-26 12:22 46.24395 1.25653 36198 ft 461 kts 203°
2026-04-26 12:23 46.18427 1.22409 36201 ft 461 kts 203°
2026-04-26 12:23 46.12412 1.19149 36192 ft 461 kts 203°
2026-04-26 12:24 46.06429 1.15912 36198 ft 460 kts 203°
2026-04-26 12:24 46.00433 1.12677 36204 ft 460 kts 203°
2026-04-26 12:25 45.91414 1.07823 36212 ft 461 kts 202°
2026-04-26 12:25 45.85442 1.04618 36213 ft 461 kts 202°
2026-04-26 12:26 45.79882 1.00314 36159 ft 448 kts 224°
2026-04-26 12:26 45.75019 0.94608 36123 ft 453 kts 222°
2026-04-26 12:27 45.70175 0.88870 36204 ft 456 kts 222°
2026-04-26 12:27 45.65304 0.83063 36189 ft 454 kts 222°
2026-04-26 12:28 45.60448 0.77280 36174 ft 455 kts 222°
2026-04-26 12:28 45.55612 0.71535 36174 ft 453 kts 222°
2026-04-26 12:29 45.50745 0.65765 36189 ft 454 kts 222°
2026-04-26 12:30 45.43447 0.57141 36186 ft 454 kts 222°
2026-04-26 12:30 45.38611 0.51440 36184 ft 454 kts 222°
2026-04-26 12:31 45.31294 0.42843 36188 ft 455 kts 222°
2026-04-26 12:31 45.26412 0.37123 36178 ft 454 kts 221°
2026-04-26 12:32 45.21562 0.31453 36185 ft 453 kts 221°
2026-04-26 12:33 45.14252 0.22932 36187 ft 454 kts 221°
2026-04-26 12:33 45.09367 0.17253 36187 ft 454 kts 221°
2026-04-26 12:34 45.04480 0.11584 36194 ft 454 kts 221°
2026-04-26 12:34 44.99620 0.05963 36190 ft 454 kts 221°
2026-04-26 12:35 44.94721 0.00308 36188 ft 454 kts 221°
2026-04-26 12:35 44.89828 -0.05327 36192 ft 453 kts 221°
2026-04-26 12:36 44.84945 -0.10938 36189 ft 452 kts 221°
2026-04-26 12:36 44.80084 -0.16512 36193 ft 453 kts 221°
2026-04-26 12:37 44.75195 -0.22105 36185 ft 453 kts 221°
2026-04-26 12:37 44.70297 -0.27696 36193 ft 453 kts 221°
2026-04-26 12:38 44.65416 -0.33238 36186 ft 453 kts 218°
2026-04-26 12:38 44.60188 -0.38227 36239 ft 455 kts 216°
2026-04-26 12:39 44.54975 -0.43249 36186 ft 453 kts 216°
2026-04-26 12:39 44.49802 -0.48248 36190 ft 454 kts 216°
2026-04-26 12:40 44.44593 -0.53273 36195 ft 454 kts 216°
2026-04-26 12:40 44.39407 -0.58263 36186 ft 454 kts 216°
2026-04-26 12:41 44.34192 -0.63272 36195 ft 454 kts 216°
2026-04-26 12:41 44.28977 -0.68270 36192 ft 454 kts 216°
2026-04-26 12:42 44.23694 -0.73140 36196 ft 455 kts 214°
2026-04-26 12:42 44.18410 -0.78001 36192 ft 454 kts 214°
2026-04-26 12:43 44.13136 -0.82847 36200 ft 453 kts 214°
2026-04-26 12:43 44.07900 -0.87647 36200 ft 453 kts 214°
2026-04-26 12:44 44.02623 -0.92473 36198 ft 453 kts 214°
2026-04-26 12:44 43.97367 -0.97271 36193 ft 453 kts 214°
2026-04-26 12:45 43.92085 -1.02081 36190 ft 453 kts 214°
2026-04-26 12:45 43.86795 -1.06889 36188 ft 453 kts 214°
2026-04-26 12:46 43.81550 -1.11646 36185 ft 453 kts 214°
2026-04-26 12:46 43.76261 -1.16431 36179 ft 454 kts 214°
2026-04-26 12:47 43.70978 -1.21202 36182 ft 452 kts 214°
2026-04-26 12:47 43.65697 -1.25961 36185 ft 452 kts 214°
2026-04-26 12:48 43.60453 -1.30676 36188 ft 453 kts 214°
2026-04-26 12:48 43.55164 -1.35422 36208 ft 453 kts 214°
2026-04-26 12:49 43.49871 -1.40160 36208 ft 453 kts 214°
2026-04-26 12:49 43.44616 -1.44856 36211 ft 453 kts 213°
2026-04-26 12:50 43.39320 -1.49577 36213 ft 453 kts 213°
2026-04-26 12:50 43.34018 -1.54296 36202 ft 454 kts 213°
2026-04-26 12:51 43.28713 -1.59008 36202 ft 454 kts 213°
2026-04-26 12:51 43.25898 -1.60981 36123 ft 454 kts 198°
2026-04-26 12:51 43.22862 -1.61857 36220 ft 449 kts 187°
2026-04-26 12:52 43.16607 -1.63039 36132 ft 456 kts 187°
2026-04-26 12:52 43.10327 -1.64121 36191 ft 457 kts 187°
2026-04-26 12:53 43.04010 -1.65169 36190 ft 458 kts 187°
2026-04-26 12:53 42.97698 -1.66210 36166 ft 454 kts 187°
2026-04-26 12:54 42.92475 -1.67069 36159 ft 454 kts 186°
2026-04-26 12:54 42.86201 -1.68100 36153 ft 454 kts 186°
2026-04-26 12:55 42.79917 -1.69130 36160 ft 454 kts 187°
2026-04-26 12:55 42.73701 -1.70372 36104 ft 454 kts 198°
2026-04-26 12:56 42.68007 -1.73921 36147 ft 453 kts 206°
2026-04-26 12:56 42.62321 -1.77657 36170 ft 454 kts 206°
2026-04-26 12:57 42.56648 -1.81453 36133 ft 453 kts 206°
2026-04-26 12:57 42.51023 -1.85220 36134 ft 453 kts 206°
2026-04-26 12:58 42.42530 -1.90896 36126 ft 453 kts 206°
2026-04-26 12:58 42.36874 -1.94665 36128 ft 452 kts 206°
2026-04-26 12:59 42.31261 -1.98405 36141 ft 452 kts 206°
2026-04-26 12:59 42.25592 -2.02170 36136 ft 452 kts 206°
2026-04-26 13:00 42.19969 -2.05895 36134 ft 452 kts 206°
2026-04-26 13:00 42.14312 -2.09633 36143 ft 453 kts 207°
2026-04-26 13:01 42.08664 -2.13359 36143 ft 451 kts 207°
2026-04-26 13:01 42.03031 -2.17067 36143 ft 451 kts 206°
2026-04-26 13:02 41.97370 -2.20786 36163 ft 452 kts 206°
2026-04-26 13:02 41.91769 -2.24460 36151 ft 448 kts 207°
2026-04-26 13:03 41.86168 -2.28125 36153 ft 447 kts 207°
2026-04-26 13:03 41.80547 -2.31795 36156 ft 449 kts 206°
2026-04-26 13:04 41.74956 -2.35440 36145 ft 450 kts 206°
2026-04-26 13:04 41.69345 -2.39090 36130 ft 446 kts 207°
2026-04-26 13:05 41.63750 -2.42723 36141 ft 447 kts 207°
2026-04-26 13:05 41.58188 -2.46328 36152 ft 447 kts 207°
2026-04-26 13:06 41.52578 -2.49958 36151 ft 447 kts 207°
2026-04-26 13:06 41.46987 -2.53565 36143 ft 445 kts 207°
2026-04-26 13:07 41.41448 -2.57134 36149 ft 445 kts 207°
2026-04-26 13:07 41.35866 -2.60725 36141 ft 445 kts 207°
2026-04-26 13:08 41.30480 -2.64722 36121 ft 441 kts 216°
2026-04-26 13:08 41.27960 -2.67052 36247 ft 442 kts 216°
2026-04-26 13:08 41.25412 -2.69384 36149 ft 445 kts 215°
2026-04-26 13:09 41.20336 -2.74051 36153 ft 443 kts 216°
2026-04-26 13:09 41.15279 -2.78694 36137 ft 444 kts 216°
2026-04-26 13:10 41.10183 -2.83363 36128 ft 444 kts 215°
2026-04-26 13:10 41.05094 -2.88018 36126 ft 444 kts 215°
2026-04-26 13:11 41.00037 -2.92635 36131 ft 444 kts 215°
2026-04-26 13:11 40.94943 -2.97277 36129 ft 444 kts 215°
2026-04-26 13:12 40.89846 -3.01912 36128 ft 444 kts 215°
2026-04-26 13:12 40.84775 -3.06516 36120 ft 444 kts 215°
2026-04-26 13:13 40.79667 -3.11143 36123 ft 444 kts 215°
2026-04-26 13:13 40.74583 -3.15740 36119 ft 444 kts 215°
2026-04-26 13:14 40.69472 -3.20354 36122 ft 444 kts 215°
2026-04-26 13:14 40.64359 -3.24960 36130 ft 444 kts 215°
2026-04-26 13:15 40.59247 -3.29556 36135 ft 444 kts 215°
2026-04-26 13:15 40.54176 -3.34108 36129 ft 444 kts 215°
2026-04-26 13:16 40.49058 -3.38693 36124 ft 444 kts 215°
2026-04-26 13:16 40.43947 -3.43264 36128 ft 444 kts 215°
2026-04-26 13:17 40.36293 -3.50091 36134 ft 445 kts 215°
2026-04-26 13:18 40.28610 -3.56926 36125 ft 444 kts 215°
2026-04-26 13:19 40.20921 -3.63746 36123 ft 444 kts 215°